FENGYUN 1C DEB, 30123

Orbit data source: Space-Track

FENGYUN 1C DEB, 30123 is space debris in SSO originally from a launch on Mon, 10 May 1999 UTC launched from the Taiyaun Space Center, China (TSC). Fengyun 1C debris stems from the Chinese weather satellite Fengyun-1C, which was intentionally destroyed by a Chinese anti-satellite missile in 2007. This event dramatically increased the amount of space debris, with thousands of trackable fragments posing hazards to satellites and human spaceflight. The Fengyun 1C debris cloud has become a focal point in discussions about space sustainability and the need for international regulations to prevent the creation of new debris.

Loading next visibility...
Identifier
30123, 1999-025SC
Orbit
SSO
Country
Flag of CNCN / PRC
Related business
Manufacturer
Unknown
Mission
Spacecraft
Bus & Motor
Unknown
Mass
Unknown
Launch date (UTC)
1999-05-10 (27 years ago)
Launch vehicle
Unknown
Launch site
Taiyaun Space Center, China (TSC)
Object type
Payload
Rocket body
Debris
Shape & HBR
Unknown shape, 0.1 m
Radar Cross Section
Medium (>0.1 m² and <1 m²)

Expand to show TLE details & history
Last TLE update: 9 hours ago

TLE from 9 hours ago
0 FENGYUN 1C DEB
1 30123U 99025SC  26254.13486851  .00001922  00000-0  60672-3 0  9997
2 30123  96.9201 143.4477 0224876 333.6342  25.3537 14.27649139 11307
Epoch: 2026-09-11T03:14Z
TLE epoch observation values (Epoch: 2026-09-11T03:14:12.639Z)
Latitude
-0.00003°
Longitude
104.73247°
Altitude
657.372 km
Speed
7.604 km/s
True Right ascension
09h 33m 47s
True Declination
0° 00' 00"
Sunlit
Object was in daylight at epoch
Visualization orbit readout
Latitude
Unknown
Longitude
Unknown
Altitude
Unknown
Speed
Unknown
Apparent Right ascension
Unknown
Apparent Declination
Unknown
Sunlit
N/A
Visualization observer readout
Local Sidereal Time
05:02:31
Azimuth
Unknown
Elevation
Unknown
Doppler factor
Unknown
Orbital elements
Apogee altitude
958.012 km
Perigee altitude
635.324 km
Semi-major axis
7,174.805 km
Eccentricity
0.02249
Inclination
96.9201°
RAAN
143.4477°
Arg. of periapsis
333.6342°
True anomaly
26.48579°
Mean anomaly
25.3537°
Eccentric anomaly
25.91684°
Mean motion
3.57131 °/min
Orbital period
100.8 mins
BSTAR
0.00060672
Loading maneuver chart data...
Computing Atmospheric mass density...
Loading historical data...
Loading historical data...
Loading historical data...
Loading historical data...
Loading historical data...
Loading historical data...
Loading historical data...

Documentation

Showing up to 5 results
|